| time (UTC) | temp F | wind direction | speed MPH | gust MPH | rain 1hr in | rain 24hr in | rain mn in | humidity % | barometer mb |
| 20260904013322 | 76 | 76 | 0.0 | 5.0 | 0.00 | 0.00 | 0.00 | 85 | 1014.4 |
| 20260904012822 | 76 | 83 | 0.0 | 5.0 | 0.00 | 0.00 | 0.00 | 84 | 1014.4 |
| 20260904012321 | 77 | 51 | 2.0 | 3.0 | 0.00 | 0.00 | 0.00 | 83 | 1014.3 |
| 20260904011821 | 77 | 72 | 2.0 | 2.0 | 0.00 | 0.00 | 0.00 | 83 | 1014.4 |
| 20260904011351 | 77 | 82 | 0.0 | 4.0 | 0.00 | 0.00 | 0.00 | 82 | 1014.2 |
| 20260904010851 | 78 | 82 | 0.0 | 4.0 | 0.00 | 0.00 | 0.00 | 82 | 1014.3 |
| 20260904010351 | 79 | 72 | 0.0 | 4.0 | 0.00 | 0.00 | 0.00 | 80 | 1014.3 |
| 20260904005851 | 80 | 78 | 1.0 | 6.0 | 0.00 | 0.00 | 0.00 | 76 | 1014.2 |
| 20260904005350 | 81 | 310 | 2.0 | 10.0 | 0.00 | 0.00 | 0.00 | 74 | 1014.2 |
| 20260904004850 | 82 | 45 | 2.0 | 13.0 | 0.00 | 0.00 | 0.00 | 73 | 1014.4 |
| 20260904004350 | 83 | 331 | 4.0 | 13.0 | 0.00 | 0.00 | 0.00 | 73 | 1014.3 |
| 20260904003850 | 83 | 346 | 3.0 | 10.0 | 0.00 | 0.00 | 0.00 | 75 | 1014.0 |
| 20260904002850 | 82 | 360 | 6.0 | 6.0 | 0.00 | 0.00 | 0.00 | 80 | 1013.5 |
| 20260904002350 | 82 | 199 | 1.0 | 3.0 | 0.00 | 0.00 | 0.00 | 81 | 1013.2 |
| 20260904001850 | 81 | 198 | 1.0 | 3.0 | 0.00 | 0.00 | 0.00 | 83 | 1013.2 |
| 20260904001349 | 81 | 198 | 1.0 | 3.0 | 0.00 | 0.00 | 0.00 | 84 | 1013.3 |
| 20260904000349 | 81 | 215 | 0.0 | 0.0 | 0.00 | 0.00 | 0.00 | 85 | 1013.4 |
| 20260903235849 | 82 | 215 | 0.0 | 0.0 | 0.00 | 0.00 | 0.00 | 84 | 1013.3 |
| 20260903235349 | 82 | 215 | 0.0 | 0.0 | 0.00 | 0.00 | 0.00 | 83 | 1013.4 |
| 20260903234848 | 83 | 215 | 0.0 | 0.0 | 0.00 | 0.00 | 0.00 | 83 | 1013.5 |
| 20260903234349 | 83 | 215 | 0.0 | 0.0 | 0.00 | 0.00 | 0.00 | 82 | 1013.5 |
| 20260903233849 | 83 | 215 | 0.0 | 0.0 | 0.00 | 0.00 | 0.00 | 82 | 1013.4 |
| 20260903233348 | 84 | 215 | 0.0 | 0.0 | 0.00 | 0.00 | 0.00 | 81 | 1013.4 |
| 20260903232848 | 85 | 215 | 0.0 | 0.0 | 0.00 | 0.00 | 0.00 | 80 | 1013.4 |
| 20260903232348 | 86 | 215 | 0.0 | 2.0 | 0.00 | 0.00 | 0.00 | 76 | 1013.5 |
| 20260903231848 | 88 | 215 | 0.0 | 3.0 | 0.00 | 0.00 | 0.00 | 71 | 1013.3 |
| 20260903231347 | 89 | 213 | 1.0 | 4.0 | 0.00 | 0.00 | 0.00 | 67 | 1013.2 |
| 20260903230848 | 89 | 206 | 3.0 | 4.0 | 0.00 | 0.00 | 0.00 | 66 | 1013.1 |
| 20260903230347 | 89 | 223 | 2.0 | 5.0 | 0.00 | 0.00 | 0.00 | 67 | 1013.1 |
| 20260903225847 | 90 | 227 | 2.0 | 6.0 | 0.00 | 0.00 | 0.00 | 66 | 1013.2 |
| 20260903225347 | 90 | 194 | 2.0 | 6.0 | 0.00 | 0.00 | 0.00 | 65 | 1013.3 |
| 20260903224347 | 90 | 210 | 0.0 | 5.0 | 0.00 | 0.00 | 0.00 | 64 | 1013.3 |
| 20260903223846 | 91 | 223 | 3.0 | 5.0 | 0.00 | 0.00 | 0.00 | 62 | 1013.4 |
| 20260903223346 | 91 | 217 | 1.0 | 5.0 | 0.00 | 0.00 | 0.00 | 61 | 1013.4 |
| 20260903222346 | 91 | 182 | 2.0 | 7.0 | 0.00 | 0.00 | 0.00 | 61 | 1013.4 |
| 20260903221846 | 91 | 243 | 2.0 | 6.0 | 0.00 | 0.00 | 0.00 | 61 | 1013.4 |
| 20260903221346 | 91 | 187 | 1.0 | 6.0 | 0.00 | 0.00 | 0.00 | 61 | 1013.3 |
| 20260903220845 | 91 | 150 | 1.0 | 6.0 | 0.00 | 0.00 | 0.00 | 61 | 1013.3 |
| 20260903220346 | 92 | 183 | 2.0 | 5.0 | 0.00 | 0.00 | 0.00 | 61 | 1013.2 |
| 20260903215845 | 92 | 237 | 2.0 | 6.0 | 0.00 | 0.00 | 0.00 | 62 | 1013.1 |
| 20260903215345 | 92 | 188 | 2.0 | 6.0 | 0.00 | 0.00 | 0.00 | 61 | 1013.1 |
| 20260903214345 | 92 | 178 | 3.0 | 7.0 | 0.00 | 0.00 | 0.00 | 58 | 1013.0 |
| 20260903213845 | 93 | 246 | 3.0 | 7.0 | 0.00 | 0.00 | 0.00 | 60 | 1013.0 |
| 20260903213344 | 93 | 184 | 4.0 | 7.0 | 0.00 | 0.00 | 0.00 | 61 | 1012.8 |
| 20260903212844 | 93 | 193 | 3.0 | 7.0 | 0.00 | 0.00 | 0.00 | 58 | 1012.8 |
| 20260903211844 | 93 | 192 | 3.0 | 13.0 | 0.00 | 0.00 | 0.00 | 58 | 1012.5 |
| 20260903211344 | 93 | 200 | 2.0 | 9.0 | 0.00 | 0.00 | 0.00 | 61 | 1012.5 |
| 20260903210844 | 93 | 161 | 3.0 | 9.0 | 0.00 | 0.00 | 0.00 | 57 | 1012.6 |
| 20260903210344 | 93 | 213 | 5.0 | 9.0 | 0.00 | 0.00 | 0.00 | 57 | 1012.5 |
| 20260903205843 | 93 | 195 | 3.0 | 12.0 | 0.00 | 0.00 | 0.00 | 57 | 1012.5 |
| 20260903204843 | 93 | 187 | 5.0 | 15.0 | 0.00 | 0.00 | 0.00 | 55 | 1012.6 |
| 20260903204343 | 93 | 230 | 6.0 | 15.0 | 0.00 | 0.00 | 0.00 | 56 | 1012.7 |
| 20260903203843 | 93 | 200 | 6.0 | 12.0 | 0.00 | 0.00 | 0.00 | 58 | 1012.6 |
| 20260903202843 | 93 | 254 | 4.0 | 12.0 | 0.00 | 0.00 | 0.00 | 56 | 1012.7 |
| 20260903202342 | 93 | 246 | 5.0 | 12.0 | 0.00 | 0.00 | 0.00 | 56 | 1012.9 |
| 20260903201842 | 93 | 160 | 6.0 | 14.0 | 0.00 | 0.00 | 0.00 | 56 | 1013.0 |
| 20260903200842 | 94 | 232 | 13.0 | 13.0 | 0.00 | 0.00 | 0.00 | 56 | 1013.1 |
| 20260903200342 | 94 | 256 | 4.0 | 7.0 | 0.00 | 0.00 | 0.00 | 59 | 1013.2 |
| 20260903195841 | 93 | 198 | 1.0 | 9.0 | 0.00 | 0.00 | 0.00 | 58 | 1013.2 |
| 20260903195341 | 92 | 253 | 5.0 | 11.0 | 0.00 | 0.00 | 0.00 | 58 | 1013.4 |
| 20260903194341 | 93 | 205 | 7.0 | 9.0 | 0.00 | 0.00 | 0.00 | 56 | 1013.7 |
| 20260903193841 | 92 | 214 | 1.0 | 12.0 | 0.00 | 0.00 | 0.00 | 58 | 1013.8 |
| 20260903193341 | 92 | 166 | 2.0 | 12.0 | 0.00 | 0.00 | 0.00 | 56 | 1013.8 |
| 20260903192840 | 94 | 266 | 6.0 | 11.0 | 0.00 | 0.00 | 0.00 | 56 | 1014.0 |
| 20260903192340 | 94 | 191 | 4.0 | 10.0 | 0.00 | 0.00 | 0.00 | 58 | 1014.1 |
| 20260903191840 | 93 | 187 | 7.0 | 11.0 | 0.00 | 0.00 | 0.00 | 55 | 1014.2 |
| 20260903190840 | 93 | 182 | 3.0 | 13.0 | 0.00 | 0.00 | 0.00 | 59 | 1014.3 |
| 20260903185840 | 93 | 202 | 9.0 | 11.0 | 0.00 | 0.00 | 0.00 | 56 | 1014.4 |
| 20260903185339 | 93 | 192 | 5.0 | 12.0 | 0.00 | 0.00 | 0.00 | 57 | 1014.4 |
| 20260903184840 | 93 | 210 | 6.0 | 12.0 | 0.00 | 0.00 | 0.00 | 56 | 1014.4 |
| 20260903184339 | 93 | 219 | 3.0 | 10.0 | 0.00 | 0.00 | 0.00 | 58 | 1014.4 |
| 20260903183839 | 93 | 183 | 4.0 | 10.0 | 0.00 | 0.00 | 0.00 | 55 | 1014.5 |
| 20260903183339 | 93 | 211 | 6.0 | 10.0 | 0.00 | 0.00 | 0.00 | 58 | 1014.5 |
| 20260903182839 | 93 | 204 | 4.0 | 10.0 | 0.00 | 0.00 | 0.00 | 56 | 1014.6 |
| 20260903182338 | 93 | 165 | 2.0 | 9.0 | 0.00 | 0.00 | 0.00 | 58 | 1014.5 |
| 20260903181839 | 92 | 180 | 5.0 | 10.0 | 0.00 | 0.00 | 0.00 | 59 | 1014.5 |
| 20260903181338 | 93 | 213 | 6.0 | 10.0 | 0.00 | 0.00 | 0.00 | 57 | 1014.5 |
| 20260903180838 | 93 | 234 | 1.0 | 9.0 | 0.00 | 0.00 | 0.00 | 58 | 1014.5 |
| 20260903180338 | 93 | 221 | 5.0 | 9.0 | 0.00 | 0.00 | 0.00 | 58 | 1014.6 |
| 20260903175838 | 93 | 178 | 4.0 | 10.0 | 0.00 | 0.00 | 0.00 | 59 | 1014.5 |
| 20260903174838 | 92 | 165 | 3.0 | 10.0 | 0.00 | 0.00 | 0.00 | 60 | 1014.8 |
| 20260903174337 | 92 | 186 | 2.0 | 10.0 | 0.00 | 0.00 | 0.00 | 59 | 1014.8 |
| 20260903173837 | 92 | 165 | 4.0 | 10.0 | 0.00 | 0.00 | 0.00 | 60 | 1014.9 |
| 20260903172837 | 92 | 216 | 3.0 | 12.0 | 0.00 | 0.00 | 0.00 | 62 | 1015.1 |
| 20260903172338 | 92 | 196 | 6.0 | 11.0 | 0.00 | 0.00 | 0.00 | 59 | 1015.0 |
| 20260903171837 | 93 | 187 | 3.0 | 7.0 | 0.00 | 0.00 | 0.00 | 60 | 1014.9 |
| 20260903170837 | 93 | 184 | 0.0 | 5.0 | 0.00 | 0.00 | 0.00 | 59 | 1015.1 |
| 20260903170336 | 93 | 247 | 2.0 | 5.0 | 0.00 | 0.00 | 0.00 | 60 | 1015.0 |
| 20260903165836 | 92 | 186 | 1.0 | 5.0 | 0.00 | 0.00 | 0.00 | 61 | 1015.1 |
| 20260903165336 | 92 | 259 | 2.0 | 7.0 | 0.00 | 0.00 | 0.00 | 61 | 1015.0 |
| 20260903164835 | 92 | 42 | 1.0 | 7.0 | 0.00 | 0.00 | 0.00 | 64 | 1015.3 |
| 20260903164335 | 92 | 156 | 2.0 | 7.0 | 0.00 | 0.00 | 0.00 | 63 | 1015.4 |
| 20260903163835 | 92 | 173 | 1.0 | 7.0 | 0.00 | 0.00 | 0.00 | 64 | 1015.4 |
| 20260903163336 | 92 | 221 | 7.0 | 7.0 | 0.00 | 0.00 | 0.00 | 64 | 1015.4 |
| 20260903162835 | 92 | 27 | 2.0 | 6.0 | 0.00 | 0.00 | 0.00 | 60 | 1015.3 |
| 20260903162335 | 92 | 160 | 1.0 | 5.0 | 0.00 | 0.00 | 0.00 | 67 | 1015.4 |
| 20260903161334 | 91 | 271 | 3.0 | 7.0 | 0.00 | 0.00 | 0.00 | 63 | 1015.5 |
| 20260903160835 | 91 | 66 | 2.0 | 7.0 | 0.00 | 0.00 | 0.00 | 64 | 1015.4 |
| 20260903160334 | 91 | 155 | 3.0 | 7.0 | 0.00 | 0.00 | 0.00 | 65 | 1015.6 |
| 20260903155334 | 91 | 317 | 6.0 | 6.0 | 0.00 | 0.00 | 0.00 | 63 | 1015.6 |
| 20260903154834 | 91 | 238 | 0.0 | 6.0 | 0.00 | 0.00 | 0.00 | 66 | 1015.8 |
| 20260903154334 | 91 | 53 | 2.0 | 7.0 | 0.00 | 0.00 | 0.00 | 67 | 1015.8 |
| 20260903153834 | 91 | 301 | 0.0 | 7.0 | 0.00 | 0.00 | 0.00 | 64 | 1015.7 |
| 20260903152833 | 90 | 246 | 2.0 | 5.0 | 0.00 | 0.00 | 0.00 | 64 | 1015.6 |
| 20260903152333 | 89 | 189 | 0.0 | 4.0 | 0.00 | 0.00 | 0.00 | 67 | 1015.7 |
| 20260903151833 | 89 | 157 | 1.0 | 4.0 | 0.00 | 0.00 | 0.00 | 67 | 1015.6 |
| 20260903151333 | 89 | 194 | 1.0 | 5.0 | 0.00 | 0.00 | 0.00 | 68 | 1015.5 |
| 20260903150833 | 89 | 248 | 3.0 | 5.0 | 0.00 | 0.00 | 0.00 | 71 | 1015.5 |
| 20260903145832 | 88 | 209 | 2.0 | 5.0 | 0.00 | 0.00 | 0.00 | 70 | 1015.5 |
| 20260903145332 | 88 | 339 | 2.0 | 5.0 | 0.00 | 0.00 | 0.00 | 69 | 1015.5 |
| 20260903144832 | 87 | 159 | 2.0 | 5.0 | 0.00 | 0.00 | 0.00 | 70 | 1015.4 |
| 20260903144332 | 87 | 201 | 1.0 | 6.0 | 0.00 | 0.00 | 0.00 | 70 | 1015.3 |
| 20260903143832 | 87 | 248 | 2.0 | 6.0 | 0.00 | 0.00 | 0.00 | 70 | 1015.4 |
| 20260903142832 | 87 | 213 | 2.0 | 5.0 | 0.00 | 0.00 | 0.00 | 74 | 1015.5 |
| 20260903142331 | 86 | 230 | 1.0 | 5.0 | 0.00 | 0.00 | 0.00 | 72 | 1015.4 |
| 20260903141831 | 86 | 229 | 1.0 | 6.0 | 0.00 | 0.00 | 0.00 | 73 | 1015.5 |
| 20260903141331 | 86 | 184 | 2.0 | 6.0 | 0.00 | 0.00 | 0.00 | 74 | 1015.5 |
| 20260903140331 | 85 | 232 | 0.0 | 5.0 | 0.00 | 0.00 | 0.00 | 74 | 1015.6 |
| 20260903135830 | 84 | 229 | 2.0 | 7.0 | 0.00 | 0.00 | 0.00 | 75 | 1015.6 |
| 20260903135330 | 84 | 169 | 1.0 | 7.0 | 0.00 | 0.00 | 0.00 | 76 | 1015.5 |
| 20260903134830 | 83 | 179 | 4.0 | 4.0 | 0.00 | 0.00 | 0.00 | 77 | 1015.6 |
| 20260903133830 | 82 | 175 | 2.0 | 5.0 | 0.00 | 0.00 | 0.00 | 77 | 1015.6 |
| 20260903133330 | 82 | 184 | 2.0 | 4.0 | 0.00 | 0.00 | 0.00 | 80 | 1015.6 |
| 20260903132829 | 81 | 179 | 3.0 | 4.0 | 0.00 | 0.00 | 0.00 | 80 | 1015.7 |
| 20260903132329 | 81 | 201 | 2.0 | 5.0 | 0.00 | 0.00 | 0.00 | 80 | 1015.7 |
| 20260903131829 | 80 | 221 | 2.0 | 5.0 | 0.00 | 0.00 | 0.00 | 81 | 1015.7 |
| 20260903131329 | 80 | 180 | 0.0 | 5.0 | 0.00 | 0.00 | 0.00 | 81 | 1015.8 |
| 20260903130829 | 80 | 190 | 1.0 | 5.0 | 0.00 | 0.00 | 0.00 | 81 | 1015.9 |
| 20260903130328 | 79 | 184 | 1.0 | 5.0 | 0.00 | 0.00 | 0.00 | 82 | 1015.7 |
| 20260903125829 | 79 | 187 | 2.0 | 6.0 | 0.00 | 0.00 | 0.00 | 83 | 1015.9 |
| 20260903125328 | 79 | 190 | 4.0 | 6.0 | 0.00 | 0.00 | 0.00 | 83 | 1015.9 |
| 20260903124828 | 78 | 201 | 3.0 | 3.0 | 0.00 | 0.00 | 0.00 | 84 | 1015.9 |
| 20260903124328 | 78 | 200 | 2.0 | 3.0 | 0.00 | 0.00 | 0.00 | 84 | 1015.9 |
| 20260903123828 | 78 | 211 | 3.0 | 4.0 | 0.00 | 0.00 | 0.00 | 84 | 1015.9 |
| 20260903123328 | 77 | 211 | 1.0 | 4.0 | 0.00 | 0.00 | 0.00 | 84 | 1015.8 |
| 20260903122828 | 77 | 211 | 2.0 | 3.0 | 0.00 | 0.00 | 0.00 | 86 | 1015.8 |
| 20260903122327 | 76 | 213 | 0.0 | 0.0 | 0.00 | 0.00 | 0.00 | 86 | 1015.8 |
| 20260903121827 | 76 | 213 | 0.0 | 0.0 | 0.00 | 0.00 | 0.00 | 88 | 1015.8 |
| 20260903121327 | 75 | 213 | 0.0 | 0.0 | 0.00 | 0.00 | 0.00 | 89 | 1015.7 |
| 20260903120827 | 75 | 213 | 0.0 | 0.0 | 0.00 | 0.00 | 0.00 | 89 | 1015.7 |
| 20260903115827 | 74 | 213 | 0.0 | 0.0 | 0.00 | 0.00 | 0.00 | 90 | 1015.7 |
| 20260903115326 | 74 | 213 | 0.0 | 0.0 | 0.00 | 0.00 | 0.00 | 90 | 1015.7 |
| 20260903114827 | 74 | 213 | 0.0 | 0.0 | 0.00 | 0.00 | 0.00 | 89 | 1015.7 |
| 20260903114327 | 74 | 213 | 0.0 | 0.0 | 0.00 | 0.00 | 0.00 | 88 | 1015.6 |
| 20260903113826 | 74 | 213 | 0.0 | 0.0 | 0.00 | 0.00 | 0.00 | 88 | 1015.6 |
| 20260903113326 | 74 | 213 | 0.0 | 0.0 | 0.00 | 0.00 | 0.00 | 87 | 1015.4 |
| 20260903112826 | 75 | 213 | 0.0 | 1.0 | 0.00 | 0.00 | 0.00 | 87 | 1015.4 |
| 20260903112326 | 75 | 213 | 0.0 | 1.0 | 0.00 | 0.00 | 0.00 | 87 | 1015.3 |
| 20260903111325 | 75 | 213 | 0.0 | 0.0 | 0.00 | 0.00 | 0.00 | 86 | 1015.2 |
| 20260903110826 | 75 | 213 | 0.0 | 2.0 | 0.00 | 0.00 | 0.00 | 86 | 1015.1 |
| 20260903110325 | 75 | 213 | 0.0 | 2.0 | 0.00 | 0.00 | 0.00 | 85 | 1015.1 |
| 20260903105825 | 76 | 234 | 0.0 | 2.0 | 0.00 | 0.00 | 0.00 | 85 | 1015.1 |
| 20260903104825 | 76 | 236 | 0.0 | 3.0 | 0.00 | 0.00 | 0.00 | 84 | 1015.2 |
| 20260903104325 | 76 | 211 | 1.0 | 4.0 | 0.00 | 0.00 | 0.00 | 84 | 1015.2 |
| 20260903102824 | 76 | 232 | 0.0 | 5.0 | 0.00 | 0.00 | 0.00 | 84 | 1014.9 |
| 20260903102324 | 76 | 205 | 1.0 | 3.0 | 0.00 | 0.00 | 0.00 | 84 | 1015.0 |
| 20260903101824 | 76 | 219 | 1.0 | 4.0 | 0.00 | 0.00 | 0.00 | 84 | 1015.0 |
| 20260903101324 | 76 | 236 | 0.0 | 4.0 | 0.00 | 0.00 | 0.00 | 84 | 1015.0 |
| 20260903100323 | 76 | 258 | 0.0 | 4.0 | 0.00 | 0.00 | 0.00 | 84 | 1014.9 |
| 20260903095823 | 77 | 258 | 1.0 | 4.0 | 0.00 | 0.00 | 0.00 | 84 | 1014.9 |
| 20260903094823 | 77 | 198 | 1.0 | 5.0 | 0.00 | 0.00 | 0.00 | 83 | 1014.9 |
| 20260903093823 | 77 | 237 | 2.0 | 5.0 | 0.00 | 0.00 | 0.00 | 83 | 1014.9 |
| 20260903093322 | 77 | 189 | 1.0 | 5.0 | 0.00 | 0.00 | 0.00 | 84 | 1014.8 |
| 20260903092822 | 77 | 226 | 0.0 | 3.0 | 0.00 | 0.00 | 0.00 | 84 | 1014.8 |
| 20260903092322 | 77 | 203 | 0.0 | 3.0 | 0.00 | 0.00 | 0.00 | 84 | 1014.9 |
| 20260903091822 | 77 | 196 | 0.0 | 4.0 | 0.00 | 0.00 | 0.00 | 84 | 1015.1 |
| 20260903091321 | 77 | 210 | 0.0 | 5.0 | 0.00 | 0.00 | 0.00 | 84 | 1014.9 |
| 20260903090822 | 77 | 240 | 0.0 | 5.0 | 0.00 | 0.00 | 0.00 | 84 | 1014.8 |
| 20260903090321 | 77 | 217 | 2.0 | 5.0 | 0.00 | 0.00 | 0.00 | 84 | 1014.7 |
| 20260903085821 | 77 | 213 | 2.0 | 5.0 | 0.00 | 0.00 | 0.00 | 84 | 1014.8 |
| 20260903085321 | 76 | 202 | 2.0 | 5.0 | 0.00 | 0.00 | 0.00 | 84 | 1014.7 |
| 20260903084821 | 76 | 202 | 0.0 | 3.0 | 0.00 | 0.00 | 0.00 | 84 | 1014.8 |
| 20260903084321 | 76 | 206 | 2.0 | 3.0 | 0.00 | 0.00 | 0.00 | 85 | 1014.8 |
| 20260903083821 | 76 | 237 | 0.0 | 3.0 | 0.00 | 0.00 | 0.00 | 85 | 1014.8 |
| 20260903083320 | 76 | 223 | 1.0 | 3.0 | 0.00 | 0.00 | 0.00 | 85 | 1014.8 |
| 20260903082320 | 76 | 244 | 0.0 | 2.0 | 0.00 | 0.00 | 0.00 | 85 | 1014.8 |
| 20260903081820 | 76 | 213 | 0.0 | 2.0 | 0.00 | 0.00 | 0.00 | 86 | 1015.0 |
| 20260903081320 | 76 | 226 | 0.0 | 2.0 | 0.00 | 0.00 | 0.00 | 85 | 1015.0 |
| 20260903080819 | 76 | 226 | 0.0 | 2.0 | 0.00 | 0.00 | 0.00 | 85 | 1014.9 |
| 20260903080319 | 76 | 223 | 0.0 | 1.0 | 0.00 | 0.00 | 0.00 | 85 | 1014.9 |
| 20260903075820 | 76 | 223 | 0.0 | 1.0 | 0.00 | 0.00 | 0.00 | 85 | 1014.9 |
| 20260903075319 | 77 | 225 | 0.0 | 3.0 | 0.00 | 0.00 | 0.00 | 84 | 1014.9 |
| 20260903074819 | 77 | 227 | 0.0 | 3.0 | 0.00 | 0.00 | 0.00 | 84 | 1014.9 |
| 20260903074319 | 77 | 207 | 0.0 | 0.0 | 0.00 | 0.00 | 0.00 | 84 | 1014.9 |
| 20260903073318 | 77 | 218 | 0.0 | 3.0 | 0.00 | 0.00 | 0.00 | 84 | 1014.9 |
| 20260903072818 | 77 | 236 | 0.0 | 3.0 | 0.00 | 0.00 | 0.00 | 84 | 1014.9 |
| 20260903072348 | 77 | 200 | 0.0 | 3.0 | 0.00 | 0.00 | 0.00 | 84 | 1014.9 |
| 20260903071848 | 77 | 229 | 0.0 | 1.0 | 0.00 | 0.00 | 0.00 | 84 | 1014.9 |
| 20260903071348 | 77 | 229 | 0.0 | 1.0 | 0.00 | 0.00 | 0.00 | 85 | 1014.9 |
| 20260903070848 | 77 | 229 | 0.0 | 1.0 | 0.00 | 0.00 | 0.00 | 85 | 1014.9 |
| 20260903065849 | 77 | 229 | 0.0 | 1.0 | 0.00 | 0.00 | 0.00 | 85 | 1014.9 |
| 20260903065347 | 76 | 234 | 0.0 | 2.0 | 0.00 | 0.00 | 0.00 | 86 | 1014.7 |
| 20260903064347 | 78 | 213 | 0.0 | 2.0 | 0.00 | 0.00 | 0.00 | 84 | 1014.8 |
| 20260903063847 | 78 | 213 | 0.0 | 2.0 | 0.00 | 0.00 | 0.00 | 83 | 1014.8 |
| 20260903063347 | 78 | 207 | 0.0 | 2.0 | 0.00 | 0.00 | 0.00 | 83 | 1014.9 |
| 20260903062847 | 78 | 212 | 0.0 | 1.0 | 0.00 | 0.00 | 0.00 | 84 | 1015.0 |
| 20260903062346 | 78 | 197 | 0.0 | 0.0 | 0.00 | 0.00 | 0.00 | 83 | 1015.0 |
| 20260903061846 | 78 | 197 | 0.0 | 2.0 | 0.00 | 0.00 | 0.00 | 83 | 1015.0 |
| 20260903061346 | 78 | 197 | 0.0 | 2.0 | 0.00 | 0.00 | 0.00 | 83 | 1015.0 |
| 20260903060846 | 78 | 211 | 0.0 | 2.0 | 0.00 | 0.00 | 0.00 | 83 | 1015.1 |
| 20260903060346 | 78 | 234 | 0.0 | 2.0 | 0.00 | 0.00 | 0.00 | 83 | 1015.1 |
| 20260903055846 | 78 | 292 | 2.0 | 4.0 | 0.00 | 0.00 | 0.00 | 83 | 1015.0 |
| 20260903055346 | 78 | 209 | 1.0 | 4.0 | 0.00 | 0.00 | 0.00 | 83 | 1015.0 |
| 20260903054345 | 78 | 226 | 1.0 | 3.0 | 0.00 | 0.00 | 0.00 | 83 | 1015.0 |
| 20260903053845 | 79 | 217 | 2.0 | 3.0 | 0.00 | 0.00 | 0.00 | 83 | 1014.9 |
| 20260903053345 | 79 | 217 | 1.0 | 5.0 | 0.00 | 0.00 | 0.00 | 83 | 1014.9 |
| 20260903052344 | 79 | 227 | 0.0 | 4.0 | 0.00 | 0.00 | 0.00 | 83 | 1014.8 |
| 20260903051844 | 79 | 223 | 1.0 | 4.0 | 0.00 | 0.00 | 0.00 | 83 | 1014.8 |
| 20260903051344 | 79 | 238 | 1.0 | 4.0 | 0.00 | 0.00 | 0.00 | 83 | 1014.8 |
| 20260903050844 | 79 | 202 | 1.0 | 4.0 | 0.00 | 0.00 | 0.00 | 83 | 1014.8 |
| 20260903050344 | 79 | 218 | 0.0 | 5.0 | 0.00 | 0.00 | 0.00 | 83 | 1014.8 |
| 20260903045844 | 79 | 220 | 1.0 | 5.0 | 0.00 | 0.00 | 0.00 | 83 | 1014.7 |
| 20260903045344 | 79 | 240 | 2.0 | 3.0 | 0.00 | 0.00 | 0.00 | 83 | 1014.7 |
| 20260903044844 | 79 | 188 | 1.0 | 5.0 | 0.00 | 0.00 | 0.00 | 83 | 1014.6 |
| 20260903044343 | 79 | 198 | 0.0 | 5.0 | 0.00 | 0.00 | 0.00 | 83 | 1014.6 |
| 20260903043343 | 79 | 207 | 2.0 | 4.0 | 0.00 | 0.00 | 0.00 | 83 | 1014.6 |
| 20260903042843 | 79 | 200 | 1.0 | 4.0 | 0.00 | 0.00 | 0.00 | 83 | 1014.6 |
| 20260903042343 | 79 | 221 | 1.0 | 4.0 | 0.00 | 0.00 | 0.00 | 83 | 1014.6 |
| 20260903040842 | 79 | 218 | 1.0 | 5.0 | 0.00 | 0.00 | 0.00 | 83 | 1014.5 |
| 20260903040342 | 79 | 198 | 3.0 | 5.0 | 0.00 | 0.00 | 0.00 | 83 | 1014.6 |
| 20260903035842 | 79 | 207 | 1.0 | 5.0 | 0.00 | 0.00 | 0.00 | 83 | 1014.6 |
| 20260903035342 | 79 | 213 | 2.0 | 5.0 | 0.00 | 0.00 | 0.00 | 83 | 1014.5 |
| 20260903034842 | 80 | 228 | 3.0 | 5.0 | 0.00 | 0.00 | 0.00 | 82 | 1014.7 |
| 20260903034342 | 80 | 186 | 3.0 | 5.0 | 0.00 | 0.00 | 0.00 | 82 | 1014.6 |
| 20260903033842 | 80 | 198 | 1.0 | 5.0 | 0.00 | 0.00 | 0.00 | 82 | 1014.7 |
| 20260903033341 | 80 | 194 | 2.0 | 4.0 | 0.00 | 0.00 | 0.00 | 82 | 1014.7 |
| 20260903032841 | 80 | 227 | 1.0 | 5.0 | 0.00 | 0.00 | 0.00 | 82 | 1014.7 |
| 20260903032341 | 80 | 196 | 2.0 | 5.0 | 0.00 | 0.00 | 0.00 | 82 | 1014.8 |
| 20260903031841 | 80 | 207 | 2.0 | 5.0 | 0.00 | 0.00 | 0.00 | 82 | 1014.8 |
| 20260903031341 | 80 | 206 | 1.0 | 5.0 | 0.00 | 0.00 | 0.00 | 82 | 1014.8 |
| 20260903030840 | 80 | 198 | 4.0 | 4.0 | 0.00 | 0.00 | 0.00 | 82 | 1014.9 |
| 20260903030340 | 80 | 204 | 1.0 | 6.0 | 0.00 | 0.00 | 0.00 | 82 | 1014.9 |
| 20260903025840 | 80 | 230 | 3.0 | 6.0 | 0.00 | 0.00 | 0.00 | 82 | 1014.9 |
| 20260903025340 | 80 | 217 | 2.0 | 5.0 | 0.00 | 0.00 | 0.00 | 82 | 1014.9 |
| 20260903024840 | 80 | 204 | 2.0 | 4.0 | 0.00 | 0.00 | 0.00 | 82 | 1015.0 |
| 20260903024340 | 80 | 214 | 1.0 | 4.0 | 0.00 | 0.00 | 0.00 | 82 | 1014.9 |
| 20260903023840 | 80 | 231 | 0.0 | 4.0 | 0.00 | 0.00 | 0.00 | 82 | 1014.9 |
| 20260903023339 | 80 | 196 | 1.0 | 3.0 | 0.00 | 0.00 | 0.00 | 82 | 1014.9 |
| 20260903022839 | 80 | 208 | 1.0 | 3.0 | 0.00 | 0.00 | 0.00 | 82 | 1015.0 |
| 20260903022339 | 80 | 208 | 1.0 | 3.0 | 0.00 | 0.00 | 0.00 | 81 | 1015.0 |
| 20260903020839 | 80 | 217 | 1.0 | 4.0 | 0.00 | 0.00 | 0.00 | 81 | 1015.0 |
| 20260903020338 | 81 | 229 | 0.0 | 4.0 | 0.00 | 0.00 | 0.00 | 81 | 1015.0 |
| 20260903015838 | 81 | 204 | 0.0 | 3.0 | 0.00 | 0.00 | 0.00 | 81 | 1014.9 |
| 20260903015339 | 81 | 236 | 1.0 | 3.0 | 0.00 | 0.00 | 0.00 | 81 | 1014.9 |
| 20260903014838 | 80 | 213 | 0.0 | 3.0 | 0.00 | 0.00 | 0.00 | 81 | 1014.8 |
| 20260903014338 | 81 | 213 | 0.0 | 3.0 | 0.00 | 0.00 | 0.00 | 80 | 1014.8 |
| 20260903013837 | 81 | 241 | 2.0 | 4.0 | 0.00 | 0.00 | 0.00 | 80 | 1014.7 |